Weather History for Fort Dodge, IA

Change the Weather History Date:

Friday, December 7, 2012

  Actual Average Record
Temperature  
Mean Temperature 34 °F -  
Max Temperature 39 °F 29 °F 59 °F (1984)
Min Temperature 28 °F 15 °F -17 °F (1976)
Degree Days  
Heating Degree Days 32    
Moisture  
Dew Point 24 °F    
Average Humidity 70    
Maximum Humidity 86    
Minimum Humidity 56    
Precipitation  
Precipitation 0.00 in - - ()
Sea Level Pressure  
Sea Level Pressure 29.96 in    
Wind  
Wind Speed 7 mph (NNE)    
Max Wind Speed 13 mph    
Max Gust Speed -    
Visibility 10 miles    
Events      
Averages and records for this station are not official NWS values.
T = Trace of Precipitation, MM = Missing Value Source: NWS Daily Summary

Daily Weather History Graph

Daily Weather History Graph

Search for Another Location

Airport:

Trip Planner

Search our weather history database for the weather conditions in past years. The results will help you decide how hot, cold, wet, or windy it might be!

Date:

Astronomy

Dec. 07, 2012 Rise Set
Actual Time 7:33 AM CST 4:43 PM CST
Civil Twilight 7:01 AM CST 5:15 PM CST
Nautical Twilight 6:26 AM CST 5:50 PM CST
Astronomical Twilight 5:52 AM CST 6:24 PM CST
Moon 12:46 AM CST (12/7) 12:47 PM CST (12/7)
Length of Visible Light 10h 13m
Length of Day
9h 10m
Last Quarter, 38% of the Moon is Illuminated
Dec 7
Last Quarter
Dec 13
New
Dec 19
First Quarter
Dec 28
Full
Jan 4
Last Quarter

Hourly Weather History & Observations

Time (CST) Temp. Windchill Dew Point Humidity Pressure Visibility Wind Dir Wind Speed Gust Speed Precip Events Conditions
12:15 AM 37.4 °F 32.1 °F 28.4 °F 70% 30.00 in 10.0 mi NNE 6.9 mph - N/A   Overcast
12:35 AM 37.4 °F 32.1 °F 26.6 °F 65% 30.00 in 10.0 mi North 6.9 mph - N/A   Overcast
12:55 AM 35.6 °F 28.6 °F 24.8 °F 65% 30.00 in 10.0 mi NNE 9.2 mph - N/A   Overcast
1:15 AM 35.6 °F 29.9 °F 26.6 °F 70% 29.99 in 10.0 mi North 6.9 mph - N/A   Overcast
1:35 AM 35.6 °F 30.7 °F 26.6 °F 70% 29.98 in 10.0 mi North 5.8 mph - N/A   Overcast
1:55 AM 35.6 °F 30.7 °F 26.6 °F 70% 29.99 in 10.0 mi North 5.8 mph - N/A   Overcast
2:15 AM 35.6 °F 30.7 °F 26.6 °F 70% 29.99 in 10.0 mi North 5.8 mph - N/A   Overcast
2:35 AM 35.6 °F 29.2 °F 26.6 °F 70% 29.99 in 10.0 mi North 8.1 mph - N/A   Overcast
2:55 AM 33.8 °F 26.4 °F 24.8 °F 70% 30.00 in 10.0 mi North 9.2 mph - N/A   Overcast
3:15 AM 33.8 °F 25.8 °F 24.8 °F 70% 29.99 in 10.0 mi North 10.4 mph - N/A   Overcast
3:35 AM 33.8 °F 26.4 °F 24.8 °F 70% 29.99 in 10.0 mi North 9.2 mph - N/A   Overcast
3:55 AM 32.0 °F 23.0 °F 24.8 °F 75% 29.98 in 10.0 mi North 11.5 mph - N/A   Overcast
4:15 AM 32.0 °F 24.2 °F 23.0 °F 69% 29.98 in 10.0 mi North 9.2 mph - N/A   Overcast
4:35 AM 32.0 °F 24.2 °F 23.0 °F 69% 29.98 in 10.0 mi North 9.2 mph - N/A   Overcast
4:55 AM 32.0 °F 26.4 °F 23.0 °F 69% 29.98 in 10.0 mi NNE 5.8 mph - N/A   Overcast
5:15 AM 30.2 °F 23.4 °F 24.8 °F 80% 29.97 in 10.0 mi NNE 6.9 mph - N/A   Overcast
5:35 AM 30.2 °F 24.3 °F 24.8 °F 80% 29.97 in 10.0 mi NNE 5.8 mph - N/A   Overcast
5:55 AM 30.2 °F 25.4 °F 24.8 °F 80% 29.96 in 10.0 mi NE 4.6 mph - N/A   Overcast
6:15 AM 28.4 °F 22.2 °F 23.0 °F 80% 29.96 in 10.0 mi NNE 5.8 mph - N/A   Mostly Cloudy
6:35 AM 28.4 °F 23.3 °F 23.0 °F 80% 29.98 in 10.0 mi North 4.6 mph - N/A   Mostly Cloudy
6:55 AM 28.4 °F - 23.0 °F 80% 29.99 in 10.0 mi Calm Calm - N/A   Mostly Cloudy
7:15 AM 28.4 °F - 21.2 °F 74% 29.99 in 10.0 mi Calm Calm - N/A   Overcast
7:35 AM 28.4 °F 24.6 °F 23.0 °F 80% 29.99 in 10.0 mi NNE 3.5 mph - N/A   Overcast
7:55 AM 28.4 °F 23.3 °F 23.0 °F 80% 29.98 in 10.0 mi NNE 4.6 mph - N/A   Overcast
8:15 AM 28.4 °F 23.3 °F 23.0 °F 80% 29.98 in 10.0 mi NNE 4.6 mph - N/A   Overcast
8:35 AM 28.4 °F 22.2 °F 23.0 °F 80% 29.97 in 10.0 mi NE 5.8 mph - N/A   Overcast
8:55 AM 28.4 °F 24.6 °F 24.8 °F 86% 29.98 in 10.0 mi NE 3.5 mph - N/A   Overcast
9:15 AM 30.2 °F 23.4 °F 24.8 °F 80% 29.98 in 10.0 mi ENE 6.9 mph - N/A   Mostly Cloudy
9:35 AM 30.2 °F 22.6 °F 24.8 °F 80% 29.96 in 10.0 mi ENE 8.1 mph - N/A   Mostly Cloudy
9:55 AM 32.0 °F 24.2 °F 24.8 °F 75% 29.96 in 10.0 mi ENE 9.2 mph - N/A   Partly Cloudy
10:15 AM 33.8 °F 24.8 °F 26.6 °F 75% 29.96 in 10.0 mi ENE 12.7 mph - N/A   Clear
10:35 AM 35.6 °F 27.5 °F 26.6 °F 70% 29.96 in 10.0 mi East 11.5 mph - N/A   Clear
10:55 AM 37.4 °F 29.8 °F 26.6 °F 65% 29.95 in 10.0 mi East 11.5 mph - N/A   Partly Cloudy
11:15 AM 37.4 °F 30.3 °F 26.6 °F 65% 29.95 in 10.0 mi East 10.4 mph - N/A   Mostly Cloudy
11:35 AM 37.4 °F 29.8 °F 26.6 °F 65% 29.95 in 10.0 mi East 11.5 mph - N/A   Overcast
11:55 AM 37.4 °F 30.8 °F 26.6 °F 65% 29.95 in 10.0 mi East 9.2 mph - N/A   Overcast
12:15 PM 39.2 °F 34.2 °F 24.8 °F 56% 29.94 in 10.0 mi ENE 6.9 mph - N/A   Overcast
12:35 PM 37.4 °F 30.8 °F 24.8 °F 60% 29.93 in 10.0 mi ENE 9.2 mph - N/A   Overcast
12:55 PM 37.4 °F 32.8 °F 26.6 °F 65% 29.93 in 10.0 mi NE 5.8 mph - N/A   Overcast
1:15 PM 37.4 °F 32.1 °F 26.6 °F 65% 29.94 in 10.0 mi NNE 6.9 mph - N/A   Overcast
1:35 PM 37.4 °F 32.8 °F 24.8 °F 60% 29.94 in 10.0 mi NNE 5.8 mph - N/A   Overcast
1:55 PM 37.4 °F 31.4 °F 26.6 °F 65% 29.94 in 10.0 mi NNW 8.1 mph - N/A   Overcast
2:15 PM 37.4 °F 31.4 °F 26.6 °F 65% 29.95 in 10.0 mi North 8.1 mph - N/A   Overcast
2:35 PM 37.4 °F 32.8 °F 24.8 °F 60% 29.94 in 10.0 mi North 5.8 mph - N/A   Overcast
2:55 PM 37.4 °F 31.4 °F 24.8 °F 60% 29.94 in 10.0 mi North 8.1 mph - N/A   Overcast
3:15 PM 35.6 °F 28.6 °F 24.8 °F 65% 29.95 in 10.0 mi North 9.2 mph - N/A   Overcast
3:35 PM 35.6 °F 27.5 °F 24.8 °F 65% 29.94 in 10.0 mi NNE 11.5 mph - N/A   Overcast
3:55 PM 33.8 °F 25.8 °F 24.8 °F 70% 29.94 in 10.0 mi NNE 10.4 mph - N/A   Overcast
4:15 PM 33.8 °F 27.7 °F 24.8 °F 70% 29.95 in 10.0 mi NNE 6.9 mph - N/A   Overcast
4:35 PM 33.8 °F 27.0 °F 24.8 °F 70% 29.94 in 10.0 mi NNE 8.1 mph - N/A   Overcast
4:55 PM 33.8 °F 28.6 °F 24.8 °F 70% 29.94 in 10.0 mi NNE 5.8 mph - N/A   Overcast
5:15 PM 33.8 °F 29.6 °F 24.8 °F 70% 29.93 in 10.0 mi NNE 4.6 mph - N/A   Overcast
5:35 PM 33.8 °F 27.0 °F 24.8 °F 70% 29.93 in 10.0 mi NNE 8.1 mph - N/A   Overcast
5:55 PM 33.8 °F 27.0 °F 24.8 °F 70% 29.93 in 10.0 mi NNE 8.1 mph - N/A   Overcast
6:15 PM 33.8 °F 26.4 °F 24.8 °F 70% 29.93 in 10.0 mi NNE 9.2 mph - N/A   Overcast
6:35 PM 33.8 °F 27.0 °F 24.8 °F 70% 29.93 in 10.0 mi NE 8.1 mph - N/A   Overcast
7:15 PM 33.8 °F 26.4 °F 24.8 °F 70% 29.94 in 10.0 mi NE 9.2 mph - N/A   Overcast
7:35 PM 33.8 °F 25.8 °F 24.8 °F 70% 29.94 in 10.0 mi NE 10.4 mph - N/A   Overcast
7:55 PM 32.0 °F 24.2 °F 23.0 °F 69% 29.95 in 10.0 mi ENE 9.2 mph - N/A   Overcast
8:35 PM 32.0 °F 26.4 °F 23.0 °F 69% 29.96 in 10.0 mi ENE 5.8 mph - N/A   Overcast
8:55 PM 32.0 °F 25.6 °F 21.2 °F 64% 29.96 in 10.0 mi NE 6.9 mph - N/A   Overcast
9:15 PM 32.0 °F 26.4 °F 21.2 °F 64% 29.96 in 10.0 mi NE 5.8 mph - N/A   Overcast
9:55 PM 32.0 °F 26.4 °F 21.2 °F 64% 29.96 in 10.0 mi NE 5.8 mph - N/A   Overcast
10:15 PM 32.0 °F 27.5 °F 21.2 °F 64% 29.96 in 10.0 mi NNE 4.6 mph - N/A   Overcast
10:35 PM 30.2 °F 24.3 °F 21.2 °F 69% 29.96 in 10.0 mi NNE 5.8 mph - N/A   Overcast
10:55 PM 30.2 °F 23.4 °F 21.2 °F 69% 29.96 in 10.0 mi NNE 6.9 mph - N/A   Overcast
11:15 PM 30.2 °F 24.3 °F 21.2 °F 69% 29.97 in 10.0 mi NNE 5.8 mph - N/A   Overcast
11:35 PM 30.2 °F 25.4 °F 21.2 °F 69% 29.98 in 10.0 mi North 4.6 mph - N/A   Overcast
11:55 PM 30.2 °F 24.3 °F 23.0 °F 75% 29.99 in 10.0 mi NNE 5.8 mph - N/A   Overcast